SL-14 R/B

Satellite information

Favourite Embed

Satellite Type and Status

ROCKET BODYIN ORBIT

Key statistics

Satellite SL-14 R/B at a glance.

Uptime

13997

Days in orbit

Revolutions

≈ 12.6

Per day

Orbit

LEO

Low Earth Orbit

Inclination

82.6

Latest

Satellite identification and parameters

Extended collection of information and parameters for SL-14 R/B.

Object identification

Identified? True

Debris? False

Object name: SL-14 R/B

International designator: 1987-026G

Object number (NORAD): 17588

Object ID (CCSDS): 17588

Country: COMMONWEALTH OF INDEPENDENT STATES (CIS)

Current information (Y/N): Y

RCS size: LARGE

Orbital parameters

Period: 114.676 minutes

Inclination: 82.5669 deg

SMA: 7818.827 km

Apoapsis: 1470.009 km

Periapsis: 1411.376 km

RAAN: 202.6954 deg

Eccentricy: 0.0037495

Argument of periapsis: 209.4835 deg

Mean anomaly: 270.1242 deg

Mean motion: 12.55712813 rev/day

Mean motion (dot): 0.0000004 rev/day2

B* drag term: 0.00018195 1/REarth

Two-line elements (TLE)

Creation date: July 7, 2025, 6:34 p.m.

Reference frame: TEME

Reference center: EARTH

Epoch: July 7, 2025, 12:39 p.m. UTC

TLE line 0: 0 SL-14 R/B

TLE line 1: 1 17588U 87026G 25188.52740388 .00000040 00000-0 18195-3 0 9994

TLE line 2: 2 17588 82.5669 202.6954 0037495 209.4835 270.1242 12.55712813756319

Live tracking on map

Real-time ground track for satellite SL-14 R/B.

In-orbit conjunctions

A list of the most updated potential collisions computed for object SL-14 R/B.

Target Orbit TCA Probability of collision Miss distance Type
THORAD DELTA 1 DEB SSO 2025-01-05 01:34:52 0.0003883805 319.0 (m) DEBRIS
COSMOS 1017 LEO 2024-07-22 02:20:25 0.0001283206 57.0 (m) PAYLOAD

Associated space launch

Second generation store-dump military communications satellite

SL-14 R/B was lifted into orbit during the mission ‘Tsiklon-3 | Strela-3 19 to 24’, on board a Tsiklon-3 space rocket.

The launch took place on March 13, 1987, 1:11 p.m. from 32/2.

For more information about the launch, click the button.

Launch to space Tsiklon-3 | Strela-3 19 to 24
Tsiklon-3 | Strela-3 19 to 24

Agency: N/A

Status: Launch Successful

Launch date: March 13, 1987, 1:11 p.m. UTC

Rocket: Tsiklon-3

Launch pad: 32/2

Location: Plesetsk Cosmodrome, Russian Federation

...

Latest news about this satellite

There are no fresh news available about this satellite. Check back as we update our databases every day.


Newsletter sign-up

Weekly statistics, charts and insights to help you stay on top of the space industry.